Hourly Weather Otrocz

Today, 1 August, Sunday

Time Temperature Precipitation Wind Pressure Humidity
00:00 +16°C° 0 mm 3 mps 732 mmHg 93%
01:00 +16°C° 0 mm 2 mps 732 mmHg 94%
02:00 +16°C° 0 mm 2 mps 732 mmHg 95%
03:00 +16°C° 0 mm 2 mps 732 mmHg 95%
04:00 +16°C° 0 mm 2 mps 732 mmHg 95%
05:00 +16°C° 0 mm 2 mps 732 mmHg 95%
06:00 +18°C° 0 mm 2 mps 732 mmHg 89%
07:00 +20°C° 0 mm 2 mps 732 mmHg 83%
08:00 +21°C° 0 mm 2 mps 732 mmHg 77%
09:00 +24°C° 0 mm 3 mps 732 mmHg 67%
10:00 +26°C° 0 mm 3 mps 732 mmHg 58%
11:00 +28°C° 0 mm 4 mps 732 mmHg 49%
12:00 +27°C° 0 mm 3 mps 731 mmHg 52%
13:00 +26°C° 0 mm 3 mps 731 mmHg 56%
14:00 +26°C° 0 mm 2 mps 730 mmHg 60%
15:00 +26°C° 0.2 mm 3 mps 730 mmHg 60%
16:00 +26°C° 0.2 mm 3 mps 729 mmHg 59%
17:00 +27°C° 0.2 mm 4 mps 728 mmHg 59%
18:00 +25°C° 5.6 mm 4 mps 729 mmHg 71%
19:00 +21°C° 5.6 mm 4 mps 729 mmHg 83%
20:00 +19°C° 5.6 mm 4 mps 729 mmHg 95%
21:00 +19°C° 0.9 mm 4 mps 729 mmHg 95%
22:00 +19°C° 0.9 mm 4 mps 729 mmHg 95%
23:00 +18°C° 0.9 mm 4 mps 729 mmHg 96%

Tomorrow, 2 August, Monday

Time Temperature Precipitation Wind Pressure Humidity
00:00 +18°C° 0.2 mm 3 mps 729 mmHg 96%
01:00 +17°C° 0.2 mm 3 mps 729 mmHg 97%
02:00 +17°C° 0.2 mm 3 mps 729 mmHg 97%
03:00 +16°C° 0.2 mm 3 mps 729 mmHg 97%
04:00 +16°C° 0.2 mm 3 mps 729 mmHg 97%
05:00 +16°C° 0.2 mm 3 mps 729 mmHg 96%
06:00 +15°C° 0.1 mm 4 mps 730 mmHg 95%
07:00 +14°C° 0.1 mm 4 mps 730 mmHg 94%
08:00 +14°C° 0.1 mm 4 mps 730 mmHg 93%
09:00 +14°C° 0.2 mm 4 mps 731 mmHg 93%
10:00 +14°C° 0.2 mm 4 mps 732 mmHg 92%
11:00 +14°C° 0.2 mm 4 mps 732 mmHg 92%
12:00 +15°C° 0 mm 4 mps 732 mmHg 91%
13:00 +15°C° 0 mm 4 mps 733 mmHg 90%
14:00 +15°C° 0 mm 4 mps 733 mmHg 88%
15:00 +18°C° 0.1 mm 4 mps 733 mmHg 81%
16:00 +19°C° 0.1 mm 4 mps 733 mmHg 73%
17:00 +21°C° 0.1 mm 4 mps 733 mmHg 66%
18:00 +19°C° 0.3 mm 4 mps 733 mmHg 73%
19:00 +18°C° 0.3 mm 3 mps 733 mmHg 80%
20:00 +17°C° 0.3 mm 3 mps 733 mmHg 87%
21:00 +16°C° 0 mm 3 mps 734 mmHg 89%
22:00 +14°C° 0 mm 3 mps 734 mmHg 90%
23:00 +15°C° 0 mm 2 mps 734 mmHg 92%

Day after tomorrow, 3 August, Tuesday

Time Temperature Precipitation Wind Pressure Humidity
00:00 +14°C° 0 mm 2 mps 734 mmHg 93%
01:00 +14°C° 0 mm 2 mps 735 mmHg 94%
02:00 +14°C° 0 mm 2 mps 735 mmHg 94%
03:00 +14°C° 0 mm 2 mps 735 mmHg 94%
04:00 +13°C° 0 mm 2 mps 735 mmHg 94%
05:00 +13°C° 0 mm 2 mps 735 mmHg 94%
06:00 +15°C° 0 mm 2 mps 736 mmHg 89%
07:00 +16°C° 0 mm 3 mps 736 mmHg 84%
08:00 +17°C° 0 mm 3 mps 736 mmHg 80%
09:00 +19°C° 0.2 mm 3 mps 736 mmHg 73%
10:00 +20°C° 0.2 mm 3 mps 737 mmHg 66%
11:00 +21°C° 0.2 mm 3 mps 737 mmHg 59%
12:00 +22°C° 0.2 mm 3 mps 737 mmHg 55%
13:00 +23°C° 0.2 mm 4 mps 736 mmHg 52%
14:00 +23°C° 0.2 mm 4 mps 736 mmHg 49%
15:00 +24°C° 0 mm 3 mps 736 mmHg 52%
16:00 +23°C° 0 mm 2 mps 736 mmHg 55%
17:00 +23°C° 0 mm 2 mps 736 mmHg 58%
18:00 +20°C° 0 mm 2 mps 736 mmHg 62%
19:00 +19°C° 0 mm 2 mps 736 mmHg 67%
20:00 +18°C° 0 mm 2 mps 736 mmHg 71%
21:00 +17°C° 0 mm 2 mps 736 mmHg 73%
22:00 +16°C° 0 mm 2 mps 736 mmHg 75%
23:00 +16°C° 0 mm 2 mps 736 mmHg 77%

4 August, Wednesday

Time Temperature Precipitation Wind Pressure Humidity
00:00 +16°C° 0 mm 2 mps 736 mmHg 78%
01:00 +15°C° 0 mm 2 mps 736 mmHg 79%
02:00 +15°C° 0 mm 2 mps 736 mmHg 81%
03:00 +14°C° 0 mm 3 mps 736 mmHg 82%
04:00 +14°C° 0 mm 3 mps 735 mmHg 84%
05:00 +14°C° 0 mm 3 mps 735 mmHg 86%
06:00 +16°C° 0 mm 3 mps 735 mmHg 82%
07:00 +18°C° 0 mm 3 mps 735 mmHg 79%
08:00 +19°C° 0 mm 4 mps 736 mmHg 75%
09:00 +19°C° 0.1 mm 3 mps 736 mmHg 76%
10:00 +19°C° 0.1 mm 3 mps 736 mmHg 76%
11:00 +19°C° 0.1 mm 2 mps 736 mmHg 77%
12:00 +20°C° 0 mm 2 mps 735 mmHg 75%
13:00 +20°C° 0 mm 2 mps 735 mmHg 72%
14:00 +22°C° 0 mm 1 mps 735 mmHg 70%
15:00 +23°C° 0 mm 1 mps 735 mmHg 65%
16:00 +24°C° 0 mm 2 mps 735 mmHg 61%
17:00 +25°C° 0 mm 2 mps 735 mmHg 57%
18:00 +24°C° 0 mm 1 mps 734 mmHg 64%
19:00 +22°C° 0 mm 1 mps 734 mmHg 71%
20:00 +21°C° 0 mm 1 mps 734 mmHg 78%
21:00 +20°C° 0.1 mm 1 mps 734 mmHg 81%
22:00 +19°C° 0.1 mm 1 mps 734 mmHg 83%
23:00 +19°C° 0.1 mm 1 mps 733 mmHg 86%

5 August, Thursday

Time Temperature Precipitation Wind Pressure Humidity
00:00 +17°C° 0 mm 2 mps 733 mmHg 87%
01:00 +17°C° 0 mm 2 mps 733 mmHg 89%
02:00 +16°C° 0 mm 2 mps 733 mmHg 91%
03:00 +16°C° 0 mm 2 mps 733 mmHg 91%
04:00 +16°C° 0 mm 2 mps 733 mmHg 91%
05:00 +15°C° 0 mm 1 mps 733 mmHg 91%
06:00 +16°C° 0 mm 2 mps 733 mmHg 87%
07:00 +17°C° 0 mm 2 mps 733 mmHg 82%
08:00 +19°C° 0 mm 2 mps 733 mmHg 78%
09:00 +19°C° 0 mm 2 mps 732 mmHg 75%
10:00 +20°C° 0 mm 2 mps 732 mmHg 73%
11:00 +20°C° 0 mm 3 mps 732 mmHg 70%
12:00 +20°C° 0.2 mm 3 mps 732 mmHg 74%
13:00 +19°C° 0.2 mm 3 mps 732 mmHg 77%
14:00 +19°C° 0.2 mm 3 mps 732 mmHg 81%
15:00 +18°C° 0.7 mm 3 mps 732 mmHg 85%
16:00 +17°C° 0.7 mm 3 mps 732 mmHg 89%
17:00 +16°C° 0.7 mm 3 mps 731 mmHg 93%
18:00 +16°C° 0.5 mm 3 mps 731 mmHg 94%
19:00 +14°C° 0.5 mm 3 mps 731 mmHg 95%
20:00 +14°C° 0.5 mm 3 mps 730 mmHg 96%
21:00 +14°C° 0 mm 3 mps 730 mmHg 96%
22:00 +14°C° 0 mm 2 mps 731 mmHg 97%
23:00 +14°C° 0 mm 2 mps 731 mmHg 97%

6 August, Friday

Time Temperature Precipitation Wind Pressure Humidity
00:00 +14°C° 0 mm 2 mps 731 mmHg 97%
01:00 +12°C° 0 mm 3 mps 730 mmHg 97%
02:00 +12°C° 0 mm 3 mps 730 mmHg 97%
03:00 +12°C° 0 mm 3 mps 730 mmHg 97%
04:00 +12°C° 0 mm 3 mps 731 mmHg 97%
05:00 +12°C° 0 mm 2 mps 731 mmHg 96%
06:00 +13°C° 0 mm 3 mps 731 mmHg 92%
07:00 +14°C° 0 mm 3 mps 731 mmHg 88%
08:00 +17°C° 0 mm 3 mps 731 mmHg 84%
09:00 +18°C° 0.1 mm 4 mps 731 mmHg 76%
10:00 +20°C° 0.1 mm 4 mps 731 mmHg 68%
11:00 +21°C° 0.1 mm 4 mps 731 mmHg 60%
12:00 +22°C° 0.3 mm 5 mps 731 mmHg 57%
13:00 +23°C° 0.3 mm 5 mps 731 mmHg 55%
14:00 +23°C° 0.3 mm 5 mps 731 mmHg 52%
15:00 +22°C° 0.1 mm 4 mps 731 mmHg 56%
16:00 +22°C° 0.1 mm 4 mps 731 mmHg 60%
17:00 +21°C° 0.1 mm 3 mps 731 mmHg 64%
18:00 +20°C° 0.1 mm 3 mps 731 mmHg 67%
19:00 +19°C° 0.1 mm 3 mps 731 mmHg 70%
20:00 +19°C° 0.1 mm 2 mps 731 mmHg 73%
21:00 +18°C° 0 mm 2 mps 731 mmHg 77%
22:00 +17°C° 0 mm 3 mps 731 mmHg 81%
23:00 +16°C° 0 mm 3 mps 732 mmHg 85%
Show more